Weather History for Perry, IA

Change the Weather History Date:

Sunday, September 15, 2013

  Actual Average Record
Temperature  
Mean Temperature 66 °F -  
Max Temperature 71 °F 73 °F 98 °F (1955)
Min Temperature 58 °F 50 °F 33 °F (2011)
Growing Degree Days 16 (Base 50)    
Moisture  
Dew Point 52 °F    
Average Humidity 61    
Maximum Humidity 73    
Minimum Humidity 49    
Precipitation  
Precipitation 0.00 in - - ()
Sea Level Pressure  
Sea Level Pressure 30.02 in    
Wind  
Wind Speed 9 mph (North)    
Max Wind Speed 18 mph    
Max Gust Speed 24 mph    
Visibility 10 miles    
Events      
Averages and records for this station are not official NWS values.
T = Trace of Precipitation, MM = Missing Value Source: NWS Daily Summary

Daily Weather History Graph

Daily Weather History Graph

Search for Another Location

Airport:

Trip Planner

Search our weather history database for the weather conditions in past years. The results will help you decide how hot, cold, wet, or windy it might be!

Date:

Astronomy

Sep. 15, 2013 Rise Set
Actual Time 6:57 AM CDT 7:25 PM CDT
Civil Twilight 6:29 AM CDT 7:53 PM CDT
Nautical Twilight 5:56 AM CDT 8:26 PM CDT
Astronomical Twilight 5:22 AM CDT 9:00 PM CDT
Moon 4:56 PM CDT (9/15) 2:32 AM CDT (9/15)
Length of Visible Light 13h 24m
Length of Day
12h 28m
Waxing Gibbous, 82% of the Moon is Illuminated
Sep 15
Waxing Gibbous
Sep 19
Full
Sep 26
Last Quarter
Oct 4
New
Oct 11
First Quarter

Hourly Weather History & Observations

Time (CDT) Temp. Dew Point Humidity Pressure Visibility Wind Dir Wind Speed Gust Speed Precip Events Conditions
12:15 AM 66.9 °F 47.3 °F 49% 29.91 in 10.0 mi South 8.1 mph - N/A   Overcast
12:35 AM 66.6 °F 47.5 °F 50% 29.90 in 10.0 mi South 8.1 mph - N/A   Overcast
12:55 AM 66.4 °F 48.0 °F 52% 29.90 in 10.0 mi South 8.1 mph - N/A   Overcast
1:15 AM 66.0 °F 48.4 °F 53% 29.89 in 10.0 mi South 8.1 mph - N/A   Overcast
1:35 AM 66.6 °F 48.4 °F 52% 29.89 in 10.0 mi South 8.1 mph - N/A   Overcast
1:55 AM 67.3 °F 48.4 °F 51% 29.89 in 10.0 mi South 9.2 mph - N/A   Overcast
2:15 AM 67.8 °F 48.4 °F 50% 29.88 in 10.0 mi South 10.4 mph - N/A   Overcast
2:35 AM 68.0 °F 48.4 °F 49% 29.88 in 10.0 mi SSW 9.2 mph - N/A   Overcast
2:55 AM 68.0 °F 48.4 °F 49% 29.87 in 10.0 mi SSW 9.2 mph - N/A   Overcast
3:15 AM 68.0 °F 48.7 °F 50% 29.87 in 10.0 mi SSW 6.9 mph - N/A   Overcast
3:35 AM 67.6 °F 49.1 °F 51% 29.86 in 10.0 mi SSW 6.9 mph - N/A   Overcast
3:55 AM 67.3 °F 49.5 °F 53% 29.86 in 10.0 mi SSW 6.9 mph - N/A   Overcast
4:15 AM 68.0 °F 49.5 °F 51% 29.86 in 10.0 mi SSW 11.5 mph 18.4 mph N/A   Overcast
4:35 AM 66.0 °F 52.2 °F 61% 29.86 in 10.0 mi SSW 8.1 mph - N/A   Overcast
4:55 AM 65.8 °F 52.7 °F 62% 29.85 in 10.0 mi SSW 8.1 mph - N/A   Overcast
5:15 AM 65.3 °F 53.6 °F 66% 29.85 in 10.0 mi SW 5.8 mph - N/A   Overcast
5:35 AM 65.8 °F 54.5 °F 67% 29.85 in 10.0 mi SW 8.1 mph - N/A   Overcast
5:55 AM 65.8 °F 55.6 °F 69% 29.86 in 10.0 mi SW 6.9 mph - N/A   Mostly Cloudy
6:15 AM 65.5 °F 56.3 °F 72% 29.86 in 10.0 mi SW 5.8 mph - N/A   Scattered Clouds
6:35 AM 65.8 °F 56.7 °F 72% 29.88 in 10.0 mi SW 8.1 mph - N/A   Mostly Cloudy
6:55 AM 66.4 °F 57.2 °F 72% 29.89 in 10.0 mi SW 12.7 mph 16.1 mph N/A   Overcast
7:15 AM 67.1 °F 57.7 °F 72% 29.89 in 10.0 mi WSW 9.2 mph 17.3 mph N/A   Overcast
7:35 AM 67.1 °F 57.7 °F 72% 29.89 in 10.0 mi West 10.4 mph - N/A   Mostly Cloudy
7:55 AM 67.3 °F 58.1 °F 72% 29.90 in 10.0 mi West 11.5 mph 17.3 mph N/A   Mostly Cloudy
8:15 AM 66.9 °F 58.1 °F 73% 29.89 in 10.0 mi West 5.8 mph - N/A   Mostly Cloudy
8:35 AM 66.9 °F 58.1 °F 73% 29.89 in 10.0 mi West 5.8 mph - N/A   Scattered Clouds
8:55 AM 67.6 °F 57.6 °F 70% 29.89 in 10.0 mi WNW 9.2 mph - N/A   Scattered Clouds
9:15 AM 69.1 °F 57.6 °F 67% 29.89 in 10.0 mi NNW 10.4 mph - N/A   Scattered Clouds
9:35 AM 71.1 °F 56.5 °F 60% 29.92 in 10.0 mi NW 9.2 mph - N/A   Scattered Clouds
9:55 AM 70.2 °F 55.8 °F 60% 29.93 in 10.0 mi NNW 10.4 mph - N/A   Mostly Cloudy
10:15 AM 69.4 °F 54.5 °F 59% 29.95 in 10.0 mi NNW 11.5 mph - N/A   Overcast
10:35 AM 68.0 °F 55.0 °F 63% 29.97 in 10.0 mi NNW 11.5 mph 17.3 mph N/A   Overcast
10:55 AM 65.3 °F 54.9 °F 69% 29.99 in 10.0 mi North 18.4 mph 24.2 mph N/A   Overcast
11:15 AM 65.8 °F 54.7 °F 67% 30.00 in 10.0 mi North 13.8 mph 21.9 mph N/A   Overcast
11:35 AM 66.2 °F 54.5 °F 66% 30.01 in 10.0 mi North 13.8 mph 19.6 mph N/A   Overcast
11:55 AM 66.7 °F 54.5 °F 65% 30.02 in 10.0 mi North 11.5 mph 17.3 mph N/A   Overcast
12:15 PM 68.0 °F 53.8 °F 60% 30.03 in 10.0 mi North 15.0 mph 19.6 mph N/A   Overcast
12:35 PM 67.1 °F 53.6 °F 62% 30.03 in 10.0 mi North 17.3 mph 20.7 mph N/A   Overcast
12:55 PM 66.6 °F 53.4 °F 63% 30.04 in 10.0 mi North 11.5 mph 18.4 mph N/A   Overcast
1:15 PM 65.7 °F 53.1 °F 64% 30.05 in 10.0 mi North 15.0 mph 21.9 mph N/A   Overcast
1:35 PM 65.5 °F 53.2 °F 65% 30.06 in 10.0 mi North 12.7 mph 17.3 mph N/A   Overcast
1:55 PM 64.9 °F 52.9 °F 65% 30.06 in 10.0 mi North 12.7 mph - N/A   Overcast
2:15 PM 65.5 °F 52.9 °F 64% 30.07 in 10.0 mi North 12.7 mph 20.7 mph N/A   Overcast
2:35 PM 65.8 °F 52.9 °F 63% 30.07 in 10.0 mi North 11.5 mph 19.6 mph N/A   Overcast
2:55 PM 65.8 °F 52.5 °F 62% 30.08 in 10.0 mi NNE 12.7 mph 21.9 mph N/A   Overcast
3:15 PM 65.8 °F 52.3 °F 62% 30.08 in 10.0 mi North 13.8 mph 21.9 mph N/A   Overcast
3:35 PM 65.8 °F 52.2 °F 61% 30.09 in 10.0 mi North 15.0 mph 19.6 mph N/A   Overcast
3:55 PM 66.2 °F 52.0 °F 60% 30.10 in 10.0 mi North 11.5 mph 19.6 mph N/A   Overcast
4:15 PM 66.6 °F 52.0 °F 59% 30.11 in 10.0 mi NNE 13.8 mph 18.4 mph N/A   Overcast
4:35 PM 66.4 °F 52.0 °F 60% 30.11 in 10.0 mi North 11.5 mph 21.9 mph N/A   Overcast
4:55 PM 66.6 °F 51.8 °F 59% 30.12 in 10.0 mi NNE 10.4 mph 16.1 mph N/A   Overcast
5:15 PM 66.2 °F 51.4 °F 59% 30.13 in 10.0 mi North 13.8 mph 19.6 mph N/A   Overcast
5:35 PM 66.4 °F 51.6 °F 59% 30.13 in 10.0 mi North 12.7 mph 17.3 mph N/A   Overcast
5:55 PM 66.0 °F 51.1 °F 59% 30.14 in 10.0 mi NNE 10.4 mph 18.4 mph N/A   Overcast
6:15 PM 65.7 °F 51.1 °F 59% 30.15 in 10.0 mi NNE 13.8 mph - N/A   Overcast
6:35 PM 65.3 °F 50.9 °F 60% 30.16 in 10.0 mi NNE 9.2 mph - N/A   Overcast
6:55 PM 65.3 °F 50.9 °F 60% 30.16 in 10.0 mi NNE 9.2 mph - N/A   Overcast
7:15 PM 64.8 °F 50.9 °F 61% 30.17 in 10.0 mi NE 9.2 mph - N/A   Overcast
7:35 PM 64.6 °F 50.2 °F 60% 30.18 in 10.0 mi NE 8.1 mph - N/A   Overcast
7:55 PM 64.4 °F 50.0 °F 59% 30.18 in 10.0 mi NNE 8.1 mph - N/A   Overcast
8:15 PM 64.4 °F 50.0 °F 59% 30.19 in 10.0 mi NNE 12.7 mph 18.4 mph N/A   Overcast
8:35 PM 64.0 °F 48.9 °F 58% 30.20 in 10.0 mi NNE 13.8 mph 17.3 mph N/A   Overcast
8:55 PM 63.9 °F 49.1 °F 59% 30.21 in 10.0 mi NNE 10.4 mph 16.1 mph N/A   Overcast
9:15 PM 63.9 °F 48.6 °F 57% 30.22 in 10.0 mi NE 11.5 mph - N/A   Overcast
9:35 PM 63.9 °F 47.7 °F 56% 30.23 in 10.0 mi NE 13.8 mph 19.6 mph N/A   Overcast
9:55 PM 63.0 °F 48.2 °F 59% 30.23 in 10.0 mi NE 6.9 mph - N/A   Overcast
10:15 PM 62.6 °F 48.4 °F 60% 30.23 in 10.0 mi NE 4.6 mph - N/A   Overcast
10:35 PM 61.7 °F 48.6 °F 62% 30.23 in 10.0 mi NNE 4.6 mph - N/A   Overcast
10:55 PM 61.9 °F 48.6 °F 62% 30.24 in 10.0 mi NNE 5.8 mph - N/A   Overcast
11:15 PM 61.2 °F 48.7 °F 64% 30.24 in 10.0 mi NNE 3.5 mph - N/A   Overcast
11:35 PM 60.8 °F 49.1 °F 65% 30.24 in 10.0 mi NNE 4.6 mph - N/A   Overcast
11:55 PM 58.6 °F 49.3 °F 71% 30.25 in 10.0 mi NNE 3.5 mph - N/A   Scattered Clouds